Simultaneous Nadir Overpasses (SNOs) Predictions

Prediction of SNOs between METOP-A and NOAA-19 Satellite Orbit:

Table of predicted SNOs for the next 14.0 days since TLE Epoch: 2/20/2015
Index Date (METOP-A) Time (METOP-A) Lat,Lon (METOP-A) SZA (METOP-A ) Date (NOAA-19) Time (NOAA-19) Lat,Lon (NOAA-19) SZA (NOAA-19 ) Distance(km) Time Diff (sec)
1 02/21/2015 13:34:53 -74.80, 152.95 94.64 02/21/2015 13:33:39 -74.80, 152.34 94.61 17.93 74
2 02/21/2015 14:25:36 74.67, -40.08 85.23 02/21/2015 14:24:43 74.65, -40.02 85.22 2.39 53
3 02/21/2015 15:16:18 -74.64, 127.17 94.81 02/21/2015 15:15:39 -74.66, 127.23 94.78 3.18 39
4 02/21/2015 16:06:58 74.65, -65.47 85.19 02/21/2015 16:06:46 74.66, -65.54 85.20 2.12 12
5 02/21/2015 16:57:40 -74.62, 101.78 94.85 02/21/2015 16:57:41 -74.62, 101.84 94.86 1.81 1
6 02/21/2015 17:48:20 74.63, -90.87 85.15 02/21/2015 17:48:48 74.61, -90.92 85.13 2.38 28
7 02/21/2015 18:39:02 -74.60, 76.39 94.90 02/21/2015 18:39:44 -74.62, 76.32 94.88 2.97 42
8 02/21/2015 19:29:43 74.56,-116.39 85.06 02/21/2015 19:30:50 74.57,-116.31 85.05 2.48 67
9 02/21/2015 20:20:30 -74.29, 50.24 95.21 02/21/2015 20:21:41 -74.34, 51.59 95.21 40.95 71
10 03/03/2015 23:36:01 -75.02, 3.24 98.34 03/03/2015 23:34:50 -75.01, 1.60 98.29 47.22 71
11 03/04/2015 00:26:47 74.72, 169.74 81.37 03/04/2015 00:25:48 74.69, 169.77 81.35 3.48 59
12 03/04/2015 01:17:29 -74.71, -22.95 98.66 03/04/2015 01:16:46 -74.69, -22.97 98.67 2.41 43
13 03/04/2015 02:08:09 74.70, 144.35 81.33 03/04/2015 02:07:51 74.69, 144.25 81.33 3.03 18
14 03/04/2015 02:58:52 -74.64, -48.48 98.75 03/04/2015 02:58:48 -74.64, -48.35 98.75 3.63 4
15 03/04/2015 03:49:32 74.63, 118.83 81.24 03/04/2015 03:49:53 74.65, 118.86 81.25 2.34 21
16 03/04/2015 04:40:14 -74.62, -73.87 98.79 03/04/2015 04:40:51 -74.65, -73.88 98.77 2.88 37
17 03/04/2015 05:30:54 74.61, 93.43 81.19 03/04/2015 05:31:55 74.61, 93.47 81.18 1.21 61
18 03/04/2015 06:21:38 -74.51, -99.52 98.92 03/04/2015 06:22:51 -74.51, -99.00 98.95 15.38 73




NCC Satellite Simultaneous Nadir Overpasses (
